EW3196 Weather Reports


time (UTC)temp
C
wind
direction
speed
KPH
gust
KPH
rain 1hr
cm
rain 24hr
cm
rain mn
cm
humidity
%
barometer
mb
20260505070021 17 351 0.0 11.3 0.00 0.00 0.00 71 1004.4
20260505064532 18 9 3.2 12.9 0.00 0.00 0.00 70 1004.2
20260505063010 18 360 3.2 8.0 0.00 0.00 0.00 69 1004.0
20260505061519 19 9 3.2 19.3 0.00 0.00 0.00 68 1004.3
20260505060007 20 351 11.3 27.4 0.00 0.00 0.00 66 1004.4
20260505054628 21 265 4.8 16.1 0.00 0.00 0.00 67 1003.2
20260505054504 21 286 4.8 16.1 0.00 0.00 0.00 67 1003.1
20260505053111 21 287 8.0 19.3 0.00 0.00 0.00 66 1002.7
20260505051557 21 284 4.8 14.5 0.00 0.00 0.00 66 1002.8
20260505041558 21 228 8.0 19.3 0.00 0.00 0.00 66 1002.1
20260505040055 21 219 9.7 20.9 0.00 0.00 0.00 67 1001.9
20260505034552 21 360 6.4 16.1 0.00 0.00 0.00 68 1002.2
20260505033051 21 229 6.4 17.7 0.00 0.00 0.00 68 1002.5
20260505031606 21 211 4.8 12.9 0.00 0.00 0.00 68 1002.6
20260505030051 21 219 3.2 11.3 0.00 0.00 0.00 69 1002.4
20260505024550 21 228 1.6 9.7 0.00 0.00 0.00 68 1002.6
20260505023102 21 226 3.2 11.3 0.00 0.00 0.00 68 1002.4
20260505021549 22 192 1.6 8.0 0.00 0.00 0.00 66 1002.2
20260505020048 22 219 3.2 8.0 0.00 0.00 0.00 64 1002.1
20260505014548 22 240 4.8 8.0 0.00 0.00 0.00 63 1001.9
20260505013104 23 244 3.2 11.3 0.00 0.00 0.00 62 1001.6
20260505011547 23 360 3.2 16.1 0.00 0.00 0.00 60 1001.3
20260505010046 23 219 6.4 16.1 0.00 0.00 0.00 59 1001.2
20260505004553 24 360 8.0 14.5 0.00 0.00 0.00 58 1001.1
20260505003045 25 216 6.4 16.1 0.00 0.00 0.00 56 1000.9
20260505001550 25 182 6.4 20.9 0.00 0.00 0.00 55 1001.0
20260505000100 25 360 9.7 22.5 0.00 0.00 0.00 54 1000.9
20260504234544 25 234 8.0 19.3 0.00 0.00 0.00 55 1000.9
20260504233043 26 257 3.2 19.3 0.00 0.00 0.00 55 1000.9
20260504231542 26 360 9.7 27.4 0.00 0.00 0.00 54 1000.8
20260504230100 26 269 8.0 25.7 0.00 0.00 0.00 54 1000.9
20260504224542 26 360 12.9 35.4 0.00 0.00 0.00 52 1000.8
20260504223040 26 244 11.3 24.1 0.00 0.00 0.00 52 1000.9
20260504221550 26 267 12.9 29.0 0.00 0.00 0.00 52 1000.9
20260504220040 27 253 9.7 29.0 0.00 0.00 0.00 52 1000.8
20260504214539 27 360 16.1 33.8 0.00 0.00 0.00 51 1000.9
20260504213043 27 235 6.4 33.8 0.00 0.00 0.00 51 1001.1
20260504211541 27 233 12.9 33.8 0.00 0.00 0.00 50 1001.1
20260504210036 27 204 8.0 35.4 0.00 0.00 0.00 51 1001.1
20260504204537 27 297 8.0 48.3 0.00 0.00 0.00 52 1001.2
20260504203031 26 215 12.9 27.4 0.00 0.00 0.00 53 1001.4
20260504201530 26 211 14.5 35.4 0.00 0.00 0.00 52 1001.6
20260504200029 26 242 12.9 41.8 0.00 0.00 0.00 53 1001.6
20260504194526 26 198 4.8 30.6 0.00 0.00 0.00 53 1001.9
20260504193025 26 255 11.3 41.8 0.00 0.00 0.00 49 1002.2
20260504191525 26 173 9.7 20.9 0.00 0.00 0.00 51 1002.2
20260504190022 25 240 11.3 29.0 0.00 0.00 0.00 51 1002.4
20260504184520 26 260 12.9 24.1 0.00 0.00 0.00 54 1002.6
20260504183015 25 360 8.0 20.9 0.00 0.00 0.00 61 1002.7
20260504181511 25 192 6.4 20.9 0.00 0.00 0.00 60 1002.9
20260504180010 23 224 9.7 22.5 0.00 0.00 0.00 60 1003.0
20260504174505 22 211 3.2 9.7 0.00 0.00 0.00 65 1003.4
20260504173005 21 229 3.2 9.7 0.00 0.00 0.00 67 1003.6
20260504171502 21 236 0.0 4.8 0.00 0.00 0.00 67 1003.5
20260504160104 22 261 4.8 17.7 0.00 0.00 0.00 60 1004.1
20260504081549 13 177 3.2 6.4 0.00 0.00 0.00 89 1006.7